Regional Weather Roundup
Issued by NWS

Home | Current Version | Previous Version | Text Only | Print | Product List | Glossary On
Versions: 1 2 3 4 5 6 7 8 9 10 11 12 13 14 15 16 17 18 19 20 21 22 23 24 25 26 27 28
000
ASUS44 KJAN 280310
RWRMS

MISSISSIPPI HOURLY WEATHER ROUNDUP
NATIONAL WEATHER SERVICE JACKSON MS
1000 PM CDT SUN MAY 27 2018

NOTE: "FAIR: INDICATES FEW OR NO CLOUDS BELOW 12,000 FEET WITH NO
SIGNIFICANT WEATHER AND/OR OBSTRUCTIONS TO VISIBILITY.

MSZ001>002-007>008-010>013-018>021-025>028-034>036-280400-
NORTHWEST MISSISSIPPI

CITY           SKY/WX    TMP DP  RH WIND       PRES   REMARKS
BATESVILLE       N/A    N/A N/A N/A MISG        N/A
CLARKSDALE     CLEAR     77  77 100 NE5       29.88R
CLEVELAND      FAIR      78  71  80 E6        29.86S
GREENWOOD      LGT RAIN  73  71  93 NE3       29.85F
GREENVILLE     FAIR      77  68  73 SE5       29.86R
TUNICA           N/A     73  70  88 SE3       29.90R
WINONA           N/A     73  73 100 CALM      29.86S
$$

MSZ003>006-009-014>017-022>024-029>033-037>039-280400-
NORTHEAST MISSISSIPPI

CITY           SKY/WX    TMP DP  RH WIND       PRES   REMARKS
ABERDEEN         N/A     75  75 100 NE5       29.87F
COLUMBUS AFB   FAIR      76  72  87 NE5       29.85S
CORINTH          N/A     72  72 100 CALM      29.90R
GOLDN TRIANGLE FAIR      77  73  87 N5        29.86S
STARKVILLE     FAIR      73  70  88 CALM      29.87S
TUPELO         FAIR     N/A N/A N/A W3        29.88R
$$

MSZ040-058-280400-
CENTRAL MISSISSIPPI

CITY           SKY/WX    TMP DP  RH WIND       PRES   REMARKS
JACKSON INTL   FAIR      77  71  82 NE5       29.85R
JACKSON HAWKNS FAIR      79  70  74 NE5       29.86R
MADISON        FAIR      75  70  83 CALM      29.85S
MERIDIAN KEY   FAIR      76  70  82 CALM      29.85R
MERIDIAN NAS   FAIR      77  71  82 CALM      29.85S
RAYMOND        FAIR      75  73  94 CALM      29.85R
VICKSBURG VKS  CLEAR     75  73  94 CALM        N/A
$$

MSZ059>079-280400-
SOUTH MISSISSIPPI

CITY           SKY/WX    TMP DP  RH WIND       PRES   REMARKS
COLUMBIA       FAIR      72  70  94 CALM      29.87R
HATTIESBURG    FAIR      77  71  82 N3        29.83R
LAUREL         FAIR      76  68  76 N6        29.84R
MCCOMB         FAIR      79  68  69 N3        29.84R
NATCHEZ        FAIR      75  73  93 CALM      29.85R
PINE BELT      FAIR      75  71  87 N7        29.85R
$$

MSZ080>082-280400-
COASTAL MISSISSIPPI

CITY           SKY/WX    TMP DP  RH WIND       PRES   REMARKS
BILOXI         FAIR      80  68  66 N6        29.78R
PASCAGOULA     FAIR      76  68  76 MISG      29.78R
GULFPORT       FAIR      79  69  71 N6        29.78R
$$

LAZ007>009-015>016-023>026-280400-
NORTHEAST LOUISIANA

CITY           SKY/WX    TMP DP  RH WIND       PRES   REMARKS
BASTROP        FAIR      73  72  98 CALM      29.86R
TALLULAH/VBURG FAIR      80  73  79 NE14      29.84R
VIDALIA        FAIR      79  72  78 CALM      29.83R
$$




USA.gov is the U.S. government's official web portal to all federal, state and local government web resources and services.